Wetterstation-Oberesslingen
Wetterdaten: aktuell Sonntag, 20.01.2019 23:57
Datum Zeit Temperatur Temp+5cm Luftfeuchte Luftdruck Regen Wind Richtung Richtung Sonnenschein Zeit Regen ET Solar Taupunkt Windchill Windben
20.01.2019 23:57 -0,8 C -1,1 C 79 % 1020,8 hPa 0,0 l/m 1,2 km/h (1 Bft) O-NO 65 0 min 0 min 0,000 mm 0 W/m -4,0 C -0,8 C 2,7 km/h (1 Bft)
20.01.2019 22:57 -0,7 C -1,1 C 79 % 1020,4 hPa 0,0 l/m 1,1 km/h (1 Bft) N 5 0 min 0 min 0,000 mm 0 W/m -3,9 C -0,7 C 1,1 km/h (1 Bft)
20.01.2019 21:57 -0,5 C -0,6 C 79 % 1019,8 hPa 0,0 l/m 1,3 km/h (1 Bft) N-NO 13 0 min 0 min 0,000 mm 0 W/m -3,7 C -0,5 C 2,7 km/h (1 Bft)
20.01.2019 20:57 -0,4 C -0,6 C 80 % 1019,5 hPa 0,0 l/m 1,2 km/h (1 Bft) NW 323 0 min 0 min 0,000 mm 0 W/m -3,4 C -0,4 C 2,7 km/h (1 Bft)
20.01.2019 19:57 -0,4 C -0,6 C 80 % 1019,0 hPa 0,0 l/m 1,5 km/h (1 Bft) N 5 0 min 0 min 0,000 mm 0 W/m -3,4 C -0,4 C 2,7 km/h (1 Bft)
20.01.2019 18:57 -0,4 C -0,6 C 78 % 1018,6 hPa 0,0 l/m 1,3 km/h (1 Bft) NW 313 0 min 0 min 0,000 mm 0 W/m -3,8 C -0,4 C 2,7 km/h (1 Bft)
20.01.2019 17:57 -0,2 C -0,6 C 77 % 1018,2 hPa 0,0 l/m 1,7 km/h (1 Bft) W-NW 290 0 min 0 min 0,000 mm 0 W/m -3,7 C -0,2 C 6,0 km/h (2 Bft)
20.01.2019 17:03 0,2 C 0,0 C 75 % 1017,6 hPa 0,0 l/m 1,5 km/h (1 Bft) NW 313 0 min 0 min 0,025 mm 0 W/m -3,7 C 0,2 C 2,7 km/h (1 Bft)
20.01.2019 16:03 0,3 C 0,6 C 74 % 1017,1 hPa 0,0 l/m 1,6 km/h (1 Bft) W 274 0 min 0 min 0,025 mm 30 W/m -3,8 C 0,3 C 2,7 km/h (1 Bft)
20.01.2019 15:03 0,1 C 1,7 C 72 % 1016,7 hPa 0,0 l/m 1,1 km/h (1 Bft) W-SW 242 3 min 0 min 0,051 mm 113 W/m -4,3 C 0,1 C 1,1 km/h (1 Bft)
20.01.2019 14:03 -0,6 C 1,1 C 73 % 1016,7 hPa 0,0 l/m 1,1 km/h (1 Bft) SW 235 3 min 0 min 0,051 mm 142 W/m -4,8 C -0,6 C 1,1 km/h (1 Bft)
20.01.2019 13:03 -1,7 C 0,6 C 75 % 1016,9 hPa 0,0 l/m 1,6 km/h (1 Bft) O 99 15 min 0 min 0,051 mm 144 W/m -5,5 C -1,7 C 2,7 km/h (1 Bft)
20.01.2019 12:03 -2,7 C 0,0 C 77 % 1017,1 hPa 0,0 l/m 1,2 km/h (1 Bft) O-SO 102 3 min 0 min 0,025 mm 202 W/m -6,2 C -2,7 C 2,7 km/h (1 Bft)
20.01.2019 11:03 -4,1 C -2,2 C 80 % 1017,0 hPa 0,0 l/m 1,1 km/h (1 Bft) SO 126 6 min 0 min 0,025 mm 118 W/m -7,0 C -4,1 C 1,1 km/h (1 Bft)
20.01.2019 10:03 -4,9 C -2,8 C 83 % 1016,6 hPa 0,0 l/m 1,6 km/h (1 Bft) O 93 9 min 0 min 0,025 mm 125 W/m -7,3 C -4,9 C 2,7 km/h (1 Bft)
20.01.2019 09:03 -6,4 C -5,6 C 87 % 1016,0 hPa 0,0 l/m 1,2 km/h (1 Bft) O 94 0 min 0 min 0,000 mm 28 W/m -8,2 C -6,4 C 2,7 km/h (1 Bft)
20.01.2019 08:03 -6,7 C -6,7 C 88 % 1015,5 hPa 0,0 l/m 1,1 km/h (1 Bft) O-SO 105 0 min 0 min 0,000 mm 0 W/m -8,3 C -6,7 C 1,1 km/h (1 Bft)
20.01.2019 07:03 -7,2 C -6,7 C 89 % 1015,4 hPa 0,0 l/m 1,5 km/h (1 Bft) O-SO 111 0 min 0 min 0,000 mm 0 W/m -8,7 C -7,2 C 2,7 km/h (1 Bft)
20.01.2019 06:03 -7,6 C -7,2 C 89 % 1015,3 hPa 0,0 l/m 1,7 km/h (1 Bft) O-SO 120 0 min 0 min 0,000 mm 0 W/m -9,1 C -7,6 C 2,7 km/h (1 Bft)
20.01.2019 05:03 -7,7 C -7,8 C 89 % 1015,3 hPa 0,0 l/m 1,1 km/h (1 Bft) O-SO 118 0 min 0 min 0,000 mm 0 W/m -9,2 C -7,7 C 1,1 km/h (1 Bft)
20.01.2019 04:03 -7,6 C -7,8 C 89 % 1015,4 hPa 0,0 l/m 1,1 km/h (1 Bft) O-SO 115 0 min 0 min 0,000 mm 0 W/m -9,1 C -7,6 C 1,1 km/h (1 Bft)
20.01.2019 03:03 -7,7 C -8,3 C 88 % 1015,4 hPa 0,0 l/m 1,1 km/h (1 Bft) O-SO 108 0 min 0 min 0,000 mm 0 W/m -9,3 C -7,7 C 1,1 km/h (1 Bft)
20.01.2019 02:03 -7,4 C -8,3 C 87 % 1015,4 hPa 0,0 l/m 1,1 km/h (1 Bft) O-SO 108 0 min 0 min 0,000 mm 0 W/m -9,2 C -7,4 C 1,1 km/h (1 Bft)
20.01.2019 01:03 -6,9 C -8,3 C 85 % 1015,4 hPa 0,0 l/m 1,1 km/h (1 Bft) O-SO 111 0 min 0 min 0,000 mm 0 W/m -9,0 C -6,9 C 1,1 km/h (1 Bft)
20.01.2019 00:03 -6,1 C -7,8 C 85 % 1015,5 hPa 0,0 l/m 1,1 km/h (1 Bft) O-SO 111 0 min 0 min 0,000 mm 0 W/m -8,2 C -6,1 C 1,1 km/h (1 Bft)
20.01.2019 00:00 -6,0 C -7,8 C 85 % 1015,5 hPa 0,0 l/m 1,1 km/h (1 Bft) O-SO 111 0 min 0 min 0,000 mm 0 W/m -8,1 C -6,0 C 1,1 km/h (1 Bft)
_ Min-Zeit 03:12 00:45 14:48 05:15 - 00:00 - - - - - - 03:12 03:12 00:00
Minimum _ -7,8 C -8,3 C 72 % 1015,2 hPa - 1,1 km/h (1 Bft) - - - - - - -9,6 C -7,8 C 1,1 km/h (1 Bft)
_ Max-Zeit 15:30 14:48 03:36 23:57 00:00 16:06 - - 09:51 00:00 13:03 12:18 19:48 15:30 05:33
Maximum _ 0,5 C 2,2 C 89 % 1020,8 hPa 0,0 l/m 2,9 km/h
W (1 Bft)
- - 3 min 0 min 0,051 mm 218 W/m -3,4 C 0,5 C 6,0 km/h
SO (2 Bft)
Durchschnitt _ -3,5 C -3,2 C 81 % 1017,0 hPa #0,0 l/m 1,3 km/h (1 Bft) O-SO - #39 min. #0 min. #0,254 mm 99 W/m -6,3 C -3,5 C 2,3 km/h (1 Bft)